Préparation du vol

Réserver un ULM chez EFU                     Découvrir nos appareils                     Coordonnées de l'école

Available data for LFPN from the past hour

METAR
LFPN 260700Z AUTO 10011KT CAVOK 20/12 Q1018 NOSIG
LFPN 260630Z AUTO 10009KT CAVOK 19/11 Q1018 NOSIG
TAF
TAF LFPN 260500Z 2606/2615 12008KT CAVOK

Pour avoir des informations détaillée sur la météo à venir vous pouvez consulter Aeroweb

prevision des pluies

Nota : Heuro locale = heure CET

ATISATIS Étampes129.900
SOLÉtampes sol121.850
TWRÉtampes tour119.050
VDFÉtampes gonio119.050

OLIVIA

Outil en Ligne Intégré de Visualisation d'Informations Aéronautiques

OLIVIA